EIN673 LHBP-EIDW

Flight info

Callsign EIN673
Flight time 2h 56m
Altitude 36000
Route N0447F360 BADOV DCT MAVOR DCT KATQA DCT BNO DCT VLM DCT ELMEK DCT VEXIL DCT KATCE DCT EXOBA DCT TENLI L602 SPY DCT RAVLO Y70 OTBED L60 PENIL UL28 LELDO M145 BAGSO BAGSO4L
Aircraft A320/M-SDE3FGHIRWY/LB1

Departure

Time 2026-02-20 07:53
Airport Budapest Liszt Ferenc International Airport (LHBP)

Arrival

Time 2026-02-20 10:49
Airport Dublin Airport (EIDW)
Time Latitude Longitude Altitude Speed Heading
2026-02-20 07:09 47.43298 19.25704 475 ft 0 kts 39°
2026-02-20 07:42 47.43288 19.25691 474 ft 3 kts 38°
2026-02-20 07:42 47.43271 19.25673 470 ft 3 kts 34°
2026-02-20 07:42 47.43254 19.25657 473 ft 3 kts 28°
2026-02-20 07:43 47.43236 19.25644 469 ft 3 kts 14°
2026-02-20 07:43 47.43218 19.25641 472 ft 3 kts 335°
2026-02-20 07:43 47.43211 19.25646 469 ft 0 kts 311°
2026-02-20 07:46 47.43213 19.25642 468 ft 4 kts 312°
2026-02-20 07:46 47.43245 19.25591 471 ft 7 kts 313°
2026-02-20 07:46 47.43274 19.25534 470 ft 7 kts 304°
2026-02-20 07:46 47.43304 19.25489 470 ft 5 kts 315°
2026-02-20 07:47 47.43326 19.25457 470 ft 3 kts 315°
2026-02-20 07:47 47.43351 19.25424 471 ft 7 kts 324°
2026-02-20 07:47 47.43372 19.25429 472 ft 1 kts 35°
2026-02-20 07:47 47.43395 19.25455 471 ft 11 kts 39°
2026-02-20 07:48 47.43418 19.25511 474 ft 2 kts 68°
2026-02-20 07:48 47.43422 19.25514 474 ft 0 kts 41°
2026-02-20 07:48 47.43423 19.25515 474 ft 1 kts 37°
2026-02-20 07:48 47.43500 19.25594 474 ft 17 kts 41°
2026-02-20 07:49 47.43584 19.25713 480 ft 16 kts 47°
2026-02-20 07:49 47.43662 19.25817 484 ft 14 kts 40°
2026-02-20 07:49 47.43735 19.25913 482 ft 14 kts 43°
2026-02-20 07:49 47.43806 19.26008 490 ft 13 kts 42°
2026-02-20 07:50 47.43875 19.26101 487 ft 14 kts 43°
2026-02-20 07:50 47.43949 19.26200 485 ft 14 kts 41°
2026-02-20 07:50 47.44000 19.26266 487 ft 9 kts 42°
2026-02-20 07:50 47.44046 19.26334 491 ft 10 kts 53°
2026-02-20 07:51 47.44073 19.26444 489 ft 13 kts 81°
2026-02-20 07:51 47.44052 19.26550 481 ft 10 kts 131°
2026-02-20 07:51 47.44049 19.26554 484 ft 0 kts 133°
2026-02-20 07:51 47.44048 19.26556 484 ft 1 kts 133°
2026-02-20 07:52 47.44008 19.26619 486 ft 32 kts 132°
2026-02-20 07:52 47.43692 19.27133 472 ft 102 kts 131°
2026-02-20 07:52 47.43087 19.28121 456 ft 155 kts 133°
2026-02-20 07:52 47.42276 19.29369 767 ft 174 kts 129°
2026-02-20 07:53 47.41458 19.30752 1383 ft 181 kts 120°
2026-02-20 07:53 47.40790 19.32296 2237 ft 175 kts 109°
2026-02-20 07:53 47.40196 19.33856 3060 ft 173 kts 112°
2026-02-20 07:53 47.39621 19.35473 3534 ft 187 kts 111°
2026-02-20 07:54 47.39023 19.37343 3812 ft 214 kts 113°
2026-02-20 07:54 47.38381 19.39398 4400 ft 229 kts 105°
2026-02-20 07:54 47.38460 19.41801 4935 ft 249 kts 69°
2026-02-20 07:54 47.39462 19.43955 5669 ft 261 kts 51°
2026-02-20 07:55 47.40791 19.45843 6440 ft 269 kts 45°
2026-02-20 07:55 47.42222 19.47668 7181 ft 274 kts 44°
2026-02-20 07:55 47.43671 19.49527 7982 ft 277 kts 45°
2026-02-20 07:55 47.45104 19.51446 8798 ft 279 kts 46°
2026-02-20 07:56 47.46517 19.53426 9630 ft 281 kts 47°
2026-02-20 07:56 47.47925 19.55463 10300 ft 289 kts 47°
2026-02-20 07:56 47.49382 19.57626 10499 ft 312 kts 47°
2026-02-20 07:56 47.50956 19.59997 10656 ft 335 kts 47°
2026-02-20 07:57 47.52625 19.62519 11022 ft 348 kts 47°
2026-02-20 07:57 47.54378 19.65045 11638 ft 355 kts 40°
2026-02-20 07:57 47.56560 19.66788 12308 ft 363 kts 19°
2026-02-20 07:57 47.59078 19.67255 13036 ft 370 kts 358°
2026-02-20 07:58 47.61587 19.66318 13747 ft 377 kts 336°
2026-02-20 07:58 47.63718 19.64031 14356 ft 383 kts 315°
2026-02-20 07:58 47.65543 19.61127 14979 ft 385 kts 313°
2026-02-20 07:58 47.67362 19.58190 15585 ft 388 kts 313°
2026-02-20 07:59 47.69189 19.55228 16186 ft 390 kts 313°
2026-02-20 07:59 47.71032 19.52241 16781 ft 393 kts 313°
2026-02-20 07:59 47.72886 19.49240 17371 ft 396 kts 313°
2026-02-20 07:59 47.74752 19.46215 17966 ft 399 kts 313°
2026-02-20 08:00 47.76638 19.43164 18518 ft 401 kts 313°
2026-02-20 08:00 47.78513 19.40134 19035 ft 404 kts 312°
2026-02-20 08:00 47.80421 19.37051 19560 ft 406 kts 312°
2026-02-20 08:00 47.82335 19.33951 20081 ft 408 kts 312°
2026-02-20 08:01 47.84263 19.30824 20580 ft 410 kts 311°
2026-02-20 08:01 47.86199 19.27680 21076 ft 412 kts 311°
2026-02-20 08:01 47.88139 19.24521 21561 ft 414 kts 311°
2026-02-20 08:01 47.90087 19.21346 22035 ft 416 kts 310°
2026-02-20 08:02 47.92043 19.18151 22512 ft 418 kts 310°
2026-02-20 08:02 47.94002 19.14939 22965 ft 420 kts 309°
2026-02-20 08:02 47.95765 19.11477 23396 ft 419 kts 300°
2026-02-20 08:02 47.97129 19.07644 23772 ft 418 kts 291°
2026-02-20 08:03 47.98071 19.03538 24110 ft 418 kts 283°
2026-02-20 08:03 47.98839 18.99335 24439 ft 421 kts 283°
2026-02-20 08:03 47.99613 18.95114 24770 ft 423 kts 283°
2026-02-20 08:03 48.00395 18.90870 25097 ft 425 kts 283°
2026-02-20 08:04 48.01221 18.86622 25407 ft 428 kts 287°
2026-02-20 08:04 48.02423 18.82546 25712 ft 432 kts 296°
2026-02-20 08:04 48.04068 18.78768 26028 ft 436 kts 306°
2026-02-20 08:04 48.06092 18.75369 26336 ft 440 kts 311°
2026-02-20 08:05 48.08213 18.72061 26632 ft 441 kts 311°
2026-02-20 08:05 48.10308 18.68787 26913 ft 443 kts 311°
2026-02-20 08:05 48.12471 18.65399 27196 ft 444 kts 311°
2026-02-20 08:05 48.14578 18.62093 27461 ft 446 kts 311°
2026-02-20 08:06 48.16722 18.58721 27721 ft 448 kts 311°
2026-02-20 08:06 48.18874 18.55332 27976 ft 449 kts 311°
2026-02-20 08:06 48.21030 18.51932 28215 ft 451 kts 311°
2026-02-20 08:06 48.23193 18.48515 28447 ft 452 kts 311°
2026-02-20 08:07 48.25360 18.45091 28665 ft 454 kts 311°
2026-02-20 08:07 48.26801 18.42813 28808 ft 454 kts 311°
2026-02-20 08:07 48.28972 18.39373 29104 ft 454 kts 311°
2026-02-20 08:07 48.31138 18.35938 29422 ft 453 kts 311°
2026-02-20 08:08 48.33304 18.32499 29728 ft 452 kts 311°
2026-02-20 08:08 48.35463 18.29072 30033 ft 451 kts 311°
2026-02-20 08:08 48.37619 18.25649 30302 ft 450 kts 311°
2026-02-20 08:08 48.39777 18.22218 30577 ft 450 kts 311°
2026-02-20 08:09 48.41927 18.18796 30845 ft 449 kts 310°
2026-02-20 08:09 48.44071 18.15379 31107 ft 449 kts 310°
2026-02-20 08:09 48.46212 18.11961 31369 ft 448 kts 310°
2026-02-20 08:09 48.48345 18.08542 31624 ft 448 kts 310°
2026-02-20 08:10 48.50479 18.05108 31879 ft 448 kts 310°
2026-02-20 08:10 48.52604 18.01680 32132 ft 447 kts 310°
2026-02-20 08:10 48.54728 17.98257 32383 ft 447 kts 310°
2026-02-20 08:10 48.56854 17.94831 32635 ft 447 kts 310°
2026-02-20 08:11 48.58977 17.91408 32895 ft 446 kts 309°
2026-02-20 08:11 48.61098 17.87982 33133 ft 446 kts 309°
2026-02-20 08:11 48.63214 17.84559 33371 ft 446 kts 309°
2026-02-20 08:11 48.65335 17.81125 33604 ft 446 kts 309°
2026-02-20 08:12 48.67449 17.77695 33846 ft 446 kts 309°
2026-02-20 08:12 48.69542 17.74300 34078 ft 446 kts 309°
2026-02-20 08:12 48.71658 17.70864 34285 ft 445 kts 309°
2026-02-20 08:12 48.73767 17.67435 34497 ft 445 kts 309°
2026-02-20 08:13 48.75877 17.63999 34722 ft 444 kts 309°
2026-02-20 08:13 48.77980 17.60568 34950 ft 443 kts 309°
2026-02-20 08:13 48.80076 17.57142 35171 ft 442 kts 309°
2026-02-20 08:13 48.82139 17.53771 35427 ft 441 kts 310°
2026-02-20 08:14 48.84269 17.50408 35635 ft 441 kts 311°
2026-02-20 08:14 48.86448 17.47130 35839 ft 441 kts 313°
2026-02-20 08:14 48.88654 17.43908 36041 ft 440 kts 313°
2026-02-20 08:14 48.90870 17.40699 36125 ft 441 kts 313°
2026-02-20 08:15 48.95292 17.34239 36136 ft 440 kts 313°
2026-02-20 08:15 48.99637 17.27697 36138 ft 438 kts 308°
2026-02-20 08:16 49.02935 17.20032 36132 ft 430 kts 291°
2026-02-20 08:16 49.05000 17.11557 36127 ft 429 kts 288°
2026-02-20 08:17 49.07043 17.03021 36142 ft 429 kts 288°
2026-02-20 08:17 49.09087 16.94483 36158 ft 428 kts 288°
2026-02-20 08:18 49.11103 16.85933 36167 ft 428 kts 287°
2026-02-20 08:18 49.13110 16.77372 36172 ft 428 kts 288°
2026-02-20 08:19 49.15187 16.68859 36169 ft 429 kts 294°
2026-02-20 08:19 49.17975 16.60844 36172 ft 429 kts 296°
2026-02-20 08:20 49.20790 16.52803 36168 ft 429 kts 296°
2026-02-20 08:20 49.23597 16.44742 36171 ft 429 kts 296°
2026-02-20 08:21 49.26403 16.36680 36152 ft 429 kts 296°
2026-02-20 08:21 49.29212 16.28604 36151 ft 429 kts 297°
2026-02-20 08:22 49.32008 16.20530 36153 ft 429 kts 297°
2026-02-20 08:22 49.34773 16.12501 36158 ft 428 kts 297°
2026-02-20 08:23 49.37545 16.04408 36168 ft 428 kts 297°
2026-02-20 08:23 49.40309 15.96317 36182 ft 427 kts 297°
2026-02-20 08:24 49.43067 15.88239 36192 ft 427 kts 297°
2026-02-20 08:24 49.45820 15.80163 36207 ft 426 kts 297°
2026-02-20 08:25 49.48557 15.72095 36208 ft 425 kts 297°
2026-02-20 08:25 49.51284 15.64011 36210 ft 425 kts 297°
2026-02-20 08:26 49.54004 15.55946 36210 ft 424 kts 297°
2026-02-20 08:26 49.56712 15.47917 36210 ft 424 kts 297°
2026-02-20 08:27 49.59413 15.39855 36211 ft 423 kts 297°
2026-02-20 08:27 49.62103 15.31787 36212 ft 423 kts 297°
2026-02-20 08:28 49.64789 15.23720 36211 ft 423 kts 297°
2026-02-20 08:28 49.67470 15.15630 36212 ft 422 kts 297°
2026-02-20 08:29 49.70100 15.07582 36212 ft 422 kts 294°
2026-02-20 08:29 49.71950 14.98976 36207 ft 422 kts 287°
2026-02-20 08:30 49.73661 14.90291 36209 ft 422 kts 288°
2026-02-20 08:30 49.75362 14.81608 36208 ft 422 kts 287°
2026-02-20 08:31 49.77053 14.72920 36205 ft 422 kts 287°
2026-02-20 08:31 49.78730 14.64217 36206 ft 422 kts 287°
2026-02-20 08:32 49.80413 14.55505 36210 ft 422 kts 287°
2026-02-20 08:33 49.82920 14.42493 36209 ft 422 kts 287°
2026-02-20 08:33 49.84584 14.33778 36214 ft 422 kts 287°
2026-02-20 08:34 49.86236 14.25048 36213 ft 422 kts 287°
2026-02-20 08:34 49.87887 14.16310 36216 ft 422 kts 287°
2026-02-20 08:35 49.90426 14.03300 36211 ft 421 kts 294°
2026-02-20 08:35 49.93158 13.95286 36212 ft 420 kts 300°
2026-02-20 08:36 49.96008 13.87353 36220 ft 421 kts 300°
2026-02-20 08:36 49.98842 13.79390 36218 ft 421 kts 300°
2026-02-20 08:37 50.01672 13.71417 36218 ft 421 kts 300°
2026-02-20 08:37 50.04484 13.63484 36217 ft 421 kts 300°
2026-02-20 08:38 50.07305 13.55497 36221 ft 421 kts 300°
2026-02-20 08:38 50.10123 13.47489 36224 ft 421 kts 300°
2026-02-20 08:39 50.12938 13.39488 36218 ft 421 kts 300°
2026-02-20 08:39 50.15746 13.31466 36213 ft 421 kts 300°
2026-02-20 08:40 50.18529 13.23493 36207 ft 421 kts 300°
2026-02-20 08:40 50.21323 13.15461 36204 ft 421 kts 300°
2026-02-20 08:41 50.24107 13.07424 36200 ft 420 kts 300°
2026-02-20 08:41 50.26881 12.99392 36197 ft 420 kts 300°
2026-02-20 08:42 50.29657 12.91341 36202 ft 419 kts 300°
2026-02-20 08:42 50.32397 12.83360 36206 ft 419 kts 301°
2026-02-20 08:43 50.35149 12.75314 36215 ft 418 kts 301°
2026-02-20 08:43 50.37892 12.67269 36224 ft 418 kts 301°
2026-02-20 08:44 50.40691 12.59285 36235 ft 416 kts 303°
2026-02-20 08:44 50.43710 12.51620 36252 ft 415 kts 305°
2026-02-20 08:45 50.46815 12.43958 36255 ft 414 kts 305°
2026-02-20 08:45 50.49849 12.36281 36256 ft 414 kts 305°
2026-02-20 08:46 50.52818 12.28608 36261 ft 413 kts 304°
2026-02-20 08:46 50.55793 12.20891 36263 ft 412 kts 305°
2026-02-20 08:47 50.58769 12.13174 36266 ft 411 kts 305°
2026-02-20 08:47 50.61733 12.05480 36271 ft 410 kts 305°
2026-02-20 08:48 50.64690 11.97790 36267 ft 409 kts 305°
2026-02-20 08:48 50.67626 11.90113 36264 ft 408 kts 305°
2026-02-20 08:49 50.70530 11.82486 36264 ft 407 kts 306°
2026-02-20 08:49 50.73445 11.74825 36262 ft 406 kts 306°
2026-02-20 08:50 50.76350 11.67168 36260 ft 405 kts 306°
2026-02-20 08:50 50.79237 11.59536 36263 ft 404 kts 306°
2026-02-20 08:51 50.82116 11.51902 36261 ft 403 kts 306°
2026-02-20 08:51 50.84961 11.44340 36253 ft 402 kts 306°
2026-02-20 08:52 50.87814 11.36726 36256 ft 401 kts 306°
2026-02-20 08:52 50.90659 11.29122 36259 ft 400 kts 306°
2026-02-20 08:53 50.93490 11.21515 36256 ft 400 kts 306°
2026-02-20 08:53 50.96292 11.13965 36259 ft 399 kts 306°
2026-02-20 08:54 50.99100 11.06377 36262 ft 398 kts 306°
2026-02-20 08:54 51.01904 10.98794 36257 ft 397 kts 306°
2026-02-20 08:55 51.04692 10.91224 36249 ft 397 kts 306°
2026-02-20 08:55 51.07006 10.84921 36252 ft 397 kts 306°
2026-02-20 08:56 51.10239 10.76103 36246 ft 396 kts 306°
2026-02-20 08:56 51.12565 10.69738 36244 ft 396 kts 305°
2026-02-20 08:57 51.15315 10.62193 36241 ft 396 kts 305°
2026-02-20 08:57 51.18074 10.54585 36239 ft 396 kts 305°
2026-02-20 08:58 51.20824 10.46971 36237 ft 396 kts 305°
2026-02-20 08:58 51.23570 10.39345 36233 ft 396 kts 305°
2026-02-20 08:59 51.26076 10.31481 36234 ft 400 kts 298°
2026-02-20 08:59 51.28238 10.23338 36234 ft 400 kts 298°
2026-02-20 09:00 51.30420 10.15088 36236 ft 400 kts 298°
2026-02-20 09:00 51.32579 10.06927 36231 ft 400 kts 298°
2026-02-20 09:01 51.34740 9.98726 36238 ft 400 kts 298°
2026-02-20 09:01 51.36889 9.90517 36239 ft 399 kts 298°
2026-02-20 09:02 51.39030 9.82325 36234 ft 398 kts 297°
2026-02-20 09:02 51.41157 9.74122 36236 ft 397 kts 297°
2026-02-20 09:03 51.43256 9.66013 36241 ft 396 kts 297°
2026-02-20 09:03 51.45365 9.57857 36236 ft 395 kts 297°
2026-02-20 09:04 51.47468 9.49708 36235 ft 394 kts 297°
2026-02-20 09:04 51.49551 9.41574 36236 ft 394 kts 297°
2026-02-20 09:05 51.51621 9.33457 36229 ft 393 kts 297°
2026-02-20 09:05 51.53676 9.25382 36227 ft 392 kts 296°
2026-02-20 09:06 51.55733 9.17261 36224 ft 392 kts 296°
2026-02-20 09:06 51.57783 9.09149 36223 ft 391 kts 296°
2026-02-20 09:07 51.59831 9.01049 36207 ft 391 kts 296°
2026-02-20 09:07 51.61866 8.92934 36198 ft 391 kts 296°
2026-02-20 09:08 51.63547 8.86187 36192 ft 391 kts 296°
2026-02-20 09:08 51.65391 8.78746 36194 ft 391 kts 296°
2026-02-20 09:09 51.67408 8.70614 36185 ft 391 kts 296°
2026-02-20 09:09 51.69424 8.62491 36184 ft 390 kts 295°
2026-02-20 09:10 51.71443 8.54367 36179 ft 390 kts 296°
2026-02-20 09:10 51.73494 8.46259 36183 ft 390 kts 296°
2026-02-20 09:11 51.75546 8.38148 36176 ft 390 kts 295°
2026-02-20 09:11 51.77570 8.30081 36172 ft 390 kts 295°
2026-02-20 09:12 51.79587 8.21938 36166 ft 390 kts 295°
2026-02-20 09:12 51.81601 8.13796 36164 ft 390 kts 295°
2026-02-20 09:13 51.83619 8.05648 36164 ft 390 kts 295°
2026-02-20 09:13 51.85631 7.97509 36166 ft 390 kts 295°
2026-02-20 09:14 51.87635 7.89361 36168 ft 390 kts 294°
2026-02-20 09:14 51.89629 7.81200 36163 ft 390 kts 294°
2026-02-20 09:15 51.91615 7.73034 36162 ft 390 kts 294°
2026-02-20 09:15 51.93591 7.64862 36168 ft 389 kts 294°
2026-02-20 09:16 51.95564 7.56692 36163 ft 389 kts 294°
2026-02-20 09:16 51.97536 7.48518 36158 ft 389 kts 294°
2026-02-20 09:17 51.99498 7.40336 36165 ft 389 kts 293°
2026-02-20 09:17 52.01454 7.32160 36168 ft 389 kts 293°
2026-02-20 09:18 52.03410 7.23960 36157 ft 389 kts 293°
2026-02-20 09:18 52.05351 7.15768 36155 ft 389 kts 293°
2026-02-20 09:19 52.07289 7.07555 36146 ft 389 kts 293°
2026-02-20 09:19 52.09223 6.99357 36147 ft 389 kts 292°
2026-02-20 09:20 52.11140 6.91203 36143 ft 389 kts 292°
2026-02-20 09:20 52.13060 6.82985 36137 ft 389 kts 292°
2026-02-20 09:21 52.14982 6.74698 36129 ft 389 kts 292°
2026-02-20 09:21 52.16879 6.66506 36127 ft 389 kts 292°
2026-02-20 09:22 52.18787 6.58255 36138 ft 389 kts 292°
2026-02-20 09:22 52.20518 6.50753 36138 ft 389 kts 292°
2026-02-20 09:23 52.22410 6.42485 36132 ft 389 kts 291°
2026-02-20 09:23 52.24295 6.34209 36119 ft 389 kts 291°
2026-02-20 09:24 52.26179 6.25933 36115 ft 389 kts 291°
2026-02-20 09:24 52.28063 6.17637 36129 ft 389 kts 291°
2026-02-20 09:25 52.29938 6.09337 36115 ft 389 kts 291°
2026-02-20 09:25 52.31791 6.01093 36124 ft 389 kts 291°
2026-02-20 09:26 52.33651 5.92782 36113 ft 389 kts 290°
2026-02-20 09:26 52.35506 5.84467 36117 ft 389 kts 290°
2026-02-20 09:27 52.37357 5.76135 36105 ft 389 kts 290°
2026-02-20 09:27 52.39197 5.67791 36098 ft 389 kts 290°
2026-02-20 09:28 52.41042 5.59456 36105 ft 389 kts 290°
2026-02-20 09:28 52.42790 5.51512 36106 ft 389 kts 290°
2026-02-20 09:29 52.44613 5.43149 36105 ft 389 kts 289°
2026-02-20 09:29 52.46399 5.34915 36108 ft 390 kts 289°
2026-02-20 09:30 52.48222 5.26500 36097 ft 390 kts 289°
2026-02-20 09:30 52.50040 5.18118 36094 ft 390 kts 289°
2026-02-20 09:31 52.51838 5.09769 36100 ft 390 kts 289°
2026-02-20 09:31 52.53633 5.01354 36099 ft 390 kts 289°
2026-02-20 09:32 52.55446 4.92875 36099 ft 391 kts 289°
2026-02-20 09:32 52.57230 4.84501 36100 ft 391 kts 289°
2026-02-20 09:33 52.59014 4.76042 36097 ft 391 kts 288°
2026-02-20 09:33 52.60792 4.67580 36086 ft 392 kts 288°
2026-02-20 09:34 52.62443 4.59725 36084 ft 392 kts 288°
2026-02-20 09:34 52.64220 4.51236 36085 ft 392 kts 288°
2026-02-20 09:35 52.65989 4.42733 36079 ft 393 kts 288°
2026-02-20 09:35 52.67752 4.34210 36091 ft 393 kts 288°
2026-02-20 09:36 52.69513 4.25677 36087 ft 393 kts 288°
2026-02-20 09:36 52.71268 4.17126 36089 ft 393 kts 288°
2026-02-20 09:37 52.73019 4.08566 36088 ft 394 kts 287°
2026-02-20 09:37 52.74766 3.99995 36091 ft 394 kts 287°
2026-02-20 09:38 52.76493 3.91467 36086 ft 394 kts 287°
2026-02-20 09:38 52.78229 3.82864 36078 ft 394 kts 287°
2026-02-20 09:39 52.79957 3.74257 36067 ft 395 kts 287°
2026-02-20 09:39 52.81676 3.65677 36070 ft 395 kts 287°
2026-02-20 09:40 52.83402 3.57045 36061 ft 395 kts 287°
2026-02-20 09:40 52.85121 3.48391 36051 ft 396 kts 287°
2026-02-20 09:41 52.86823 3.39769 36052 ft 396 kts 287°
2026-02-20 09:41 52.88248 3.32497 36048 ft 396 kts 287°
2026-02-20 09:42 52.89932 3.23870 36043 ft 396 kts 287°
2026-02-20 09:43 52.92254 3.10710 36060 ft 396 kts 281°
2026-02-20 09:43 52.93425 3.01788 36071 ft 396 kts 281°
2026-02-20 09:44 52.94603 2.92870 36076 ft 396 kts 281°
2026-02-20 09:44 52.95777 2.83926 36073 ft 396 kts 281°
2026-02-20 09:45 52.96928 2.75034 36071 ft 396 kts 281°
2026-02-20 09:45 52.98086 2.66091 36078 ft 397 kts 281°
2026-02-20 09:46 52.99236 2.57129 36077 ft 397 kts 281°
2026-02-20 09:46 53.00381 2.48168 36070 ft 397 kts 281°
2026-02-20 09:47 53.01519 2.39198 36066 ft 397 kts 281°
2026-02-20 09:47 53.02649 2.30224 36070 ft 397 kts 281°
2026-02-20 09:48 53.03774 2.21234 36069 ft 397 kts 280°
2026-02-20 09:48 53.04886 2.12246 36066 ft 397 kts 280°
2026-02-20 09:49 53.05988 2.03311 36065 ft 397 kts 280°
2026-02-20 09:49 53.07089 1.94311 36064 ft 397 kts 280°
2026-02-20 09:50 53.08190 1.85304 36065 ft 397 kts 280°
2026-02-20 09:50 53.09283 1.76282 36061 ft 397 kts 280°
2026-02-20 09:51 53.10364 1.67256 36062 ft 397 kts 280°
2026-02-20 09:51 53.11440 1.58229 36058 ft 397 kts 280°
2026-02-20 09:52 53.12509 1.49261 36056 ft 397 kts 280°
2026-02-20 09:52 53.13574 1.40242 36055 ft 397 kts 280°
2026-02-20 09:53 53.14624 1.31200 36054 ft 397 kts 279°
2026-02-20 09:53 53.15665 1.22171 36050 ft 397 kts 279°
2026-02-20 09:54 53.16706 1.13137 36051 ft 397 kts 279°
2026-02-20 09:54 53.17745 1.04103 36052 ft 397 kts 279°
2026-02-20 09:55 53.18774 0.95072 36051 ft 396 kts 279°
2026-02-20 09:55 53.19791 0.86035 36051 ft 396 kts 279°
2026-02-20 09:56 53.20803 0.77013 36047 ft 396 kts 279°
2026-02-20 09:56 53.21805 0.67991 36043 ft 395 kts 279°
2026-02-20 09:57 53.22795 0.58962 36043 ft 395 kts 279°
2026-02-20 09:57 53.23776 0.49996 36039 ft 395 kts 279°
2026-02-20 09:58 53.24756 0.40977 36035 ft 394 kts 279°
2026-02-20 09:58 53.25733 0.31981 36033 ft 394 kts 279°
2026-02-20 09:59 53.26700 0.22978 36030 ft 393 kts 278°
2026-02-20 09:59 53.27654 0.13982 36029 ft 393 kts 278°
2026-02-20 10:00 53.28604 0.04984 36030 ft 392 kts 278°
2026-02-20 10:00 53.29543 -0.03988 36031 ft 392 kts 278°
2026-02-20 10:01 53.30484 -0.12965 36030 ft 391 kts 278°
2026-02-20 10:01 53.31411 -0.21944 36027 ft 391 kts 278°
2026-02-20 10:02 53.32325 -0.30894 36008 ft 390 kts 278°
2026-02-20 10:02 53.33233 -0.39859 36006 ft 390 kts 278°
2026-02-20 10:03 53.34133 -0.48800 36024 ft 389 kts 278°
2026-02-20 10:03 53.35026 -0.57728 36019 ft 389 kts 278°
2026-02-20 10:04 53.35908 -0.66652 36024 ft 388 kts 278°
2026-02-20 10:04 53.36786 -0.75576 36009 ft 388 kts 278°
2026-02-20 10:05 53.37654 -0.84499 36007 ft 388 kts 278°
2026-02-20 10:05 53.38518 -0.93425 35995 ft 388 kts 278°
2026-02-20 10:06 53.39373 -1.02285 35992 ft 387 kts 277°
2026-02-20 10:06 53.40223 -1.11202 35981 ft 387 kts 277°
2026-02-20 10:07 53.41069 -1.20109 35983 ft 387 kts 277°
2026-02-20 10:07 53.41904 -1.29025 35965 ft 387 kts 277°
2026-02-20 10:08 53.42731 -1.37960 35959 ft 387 kts 277°
2026-02-20 10:08 53.43553 -1.46886 35946 ft 388 kts 277°
2026-02-20 10:09 53.44369 -1.55841 35947 ft 388 kts 277°
2026-02-20 10:09 53.45186 -1.64797 35936 ft 389 kts 277°
2026-02-20 10:10 53.45993 -1.73766 35936 ft 389 kts 277°
2026-02-20 10:10 53.46786 -1.82696 35926 ft 390 kts 277°
2026-02-20 10:11 53.47522 -1.91019 35927 ft 390 kts 277°
2026-02-20 10:11 53.48307 -2.00033 35918 ft 390 kts 277°
2026-02-20 10:12 53.49088 -2.09058 35922 ft 391 kts 277°
2026-02-20 10:12 53.49859 -2.18091 35915 ft 391 kts 277°
2026-02-20 10:13 53.50630 -2.27140 35918 ft 391 kts 277°
2026-02-20 10:13 53.51399 -2.36187 35915 ft 392 kts 277°
2026-02-20 10:14 53.52160 -2.45260 35921 ft 392 kts 276°
2026-02-20 10:14 53.52902 -2.54250 35915 ft 392 kts 276°
2026-02-20 10:15 53.53643 -2.63338 35903 ft 392 kts 276°
2026-02-20 10:15 53.54383 -2.72445 35892 ft 393 kts 276°
2026-02-20 10:16 53.55115 -2.81545 35891 ft 393 kts 276°
2026-02-20 10:16 53.55840 -2.90653 35885 ft 393 kts 276°
2026-02-20 10:17 53.56559 -2.99769 35890 ft 393 kts 276°
2026-02-20 10:17 53.57268 -3.08891 35886 ft 393 kts 276°
2026-02-20 10:18 53.57973 -3.18036 35890 ft 394 kts 276°
2026-02-20 10:18 53.58561 -3.25632 35885 ft 394 kts 276°
2026-02-20 10:19 53.59371 -3.36334 35882 ft 394 kts 276°
2026-02-20 10:19 53.60058 -3.45504 35868 ft 395 kts 276°
2026-02-20 10:20 53.60735 -3.54680 35868 ft 395 kts 276°
2026-02-20 10:20 53.61442 -3.63813 35665 ft 396 kts 279°
2026-02-20 10:20 53.62123 -3.68318 35407 ft 397 kts 286°
2026-02-20 10:21 53.63116 -3.72670 35169 ft 398 kts 289°
2026-02-20 10:21 53.64156 -3.76998 34924 ft 399 kts 289°
2026-02-20 10:21 53.65192 -3.81329 34681 ft 399 kts 289°
2026-02-20 10:21 53.66225 -3.85671 34032 ft 400 kts 289°
2026-02-20 10:22 53.67266 -3.90055 32947 ft 404 kts 289°
2026-02-20 10:22 53.68314 -3.94455 31988 ft 405 kts 289°
2026-02-20 10:22 53.69365 -3.98866 30975 ft 407 kts 289°
2026-02-20 10:22 53.70424 -4.03334 29927 ft 410 kts 288°
2026-02-20 10:23 53.71329 -4.07904 28726 ft 410 kts 281°
2026-02-20 10:23 53.71800 -4.12640 27555 ft 409 kts 273°
2026-02-20 10:23 53.71987 -4.17439 26392 ft 411 kts 272°
2026-02-20 10:23 53.72170 -4.22262 25393 ft 411 kts 272°
2026-02-20 10:24 53.72353 -4.27038 24619 ft 405 kts 272°
2026-02-20 10:24 53.72533 -4.31750 23828 ft 401 kts 272°
2026-02-20 10:24 53.72709 -4.36436 23005 ft 398 kts 272°
2026-02-20 10:24 53.72875 -4.41018 22264 ft 392 kts 271°
2026-02-20 10:25 53.73041 -4.45642 21551 ft 387 kts 271°
2026-02-20 10:25 53.73202 -4.50163 20843 ft 383 kts 271°
2026-02-20 10:25 53.73356 -4.54570 20185 ft 379 kts 271°
2026-02-20 10:25 53.73510 -4.59003 19525 ft 376 kts 271°
2026-02-20 10:26 53.73659 -4.63394 18896 ft 373 kts 271°
2026-02-20 10:26 53.73806 -4.67751 18284 ft 370 kts 271°
2026-02-20 10:26 53.73952 -4.72071 17648 ft 367 kts 271°
2026-02-20 10:26 53.74094 -4.76355 17084 ft 362 kts 271°
2026-02-20 10:27 53.74234 -4.80577 16557 ft 357 kts 271°
2026-02-20 10:27 53.74372 -4.84738 16034 ft 353 kts 271°
2026-02-20 10:27 53.74464 -4.87520 15679 ft 350 kts 271°
2026-02-20 10:27 53.74596 -4.91555 15167 ft 347 kts 271°
2026-02-20 10:28 53.74728 -4.95592 14629 ft 343 kts 271°
2026-02-20 10:28 53.74857 -4.99618 14091 ft 341 kts 271°
2026-02-20 10:28 53.74981 -5.03605 13511 ft 339 kts 271°
2026-02-20 10:28 53.75104 -5.07568 12904 ft 336 kts 272°
2026-02-20 10:29 53.75205 -5.11506 12286 ft 334 kts 268°
2026-02-20 10:29 53.74951 -5.15371 11674 ft 331 kts 258°
2026-02-20 10:29 53.74280 -5.19087 11029 ft 330 kts 251°
2026-02-20 10:29 53.73541 -5.22713 10732 ft 319 kts 252°
2026-02-20 10:30 53.72838 -5.26172 10602 ft 304 kts 252°
2026-02-20 10:30 53.72168 -5.29471 10479 ft 291 kts 252°
2026-02-20 10:30 53.71526 -5.32635 10351 ft 278 kts 252°
2026-02-20 10:30 53.70911 -5.35664 10173 ft 269 kts 252°
2026-02-20 10:31 53.70308 -5.38618 9926 ft 263 kts 252°
2026-02-20 10:31 53.69713 -5.41531 9814 ft 262 kts 252°
2026-02-20 10:31 53.69122 -5.44431 9816 ft 262 kts 252°
2026-02-20 10:31 53.68531 -5.47337 9814 ft 262 kts 252°
2026-02-20 10:32 53.68077 -5.50300 9816 ft 261 kts 264°
2026-02-20 10:32 53.68083 -5.53356 9817 ft 261 kts 272°
2026-02-20 10:32 53.68168 -5.56380 9816 ft 261 kts 272°
2026-02-20 10:32 53.68249 -5.59438 9816 ft 261 kts 272°
2026-02-20 10:33 53.68313 -5.62502 9813 ft 261 kts 268°
2026-02-20 10:33 53.68005 -5.65504 9812 ft 262 kts 252°
2026-02-20 10:33 53.67177 -5.68242 9812 ft 264 kts 236°
2026-02-20 10:33 53.65990 -5.70585 9802 ft 257 kts 231°
2026-02-20 10:34 53.64766 -5.72645 9803 ft 244 kts 217°
2026-02-20 10:34 53.63173 -5.73573 9810 ft 249 kts 187°
2026-02-20 10:34 53.61470 -5.72868 9813 ft 262 kts 152°
2026-02-20 10:34 53.60172 -5.70651 9814 ft 271 kts 130°
2026-02-20 10:35 53.59042 -5.68099 9815 ft 272 kts 130°
2026-02-20 10:35 53.57923 -5.65522 9818 ft 272 kts 130°
2026-02-20 10:35 53.56628 -5.63250 9812 ft 267 kts 147°
2026-02-20 10:35 53.55083 -5.61569 9817 ft 264 kts 153°
2026-02-20 10:36 53.53513 -5.59959 9821 ft 264 kts 153°
2026-02-20 10:36 53.51940 -5.58352 9819 ft 264 kts 153°
2026-02-20 10:36 53.50367 -5.56746 9823 ft 265 kts 153°
2026-02-20 10:36 53.48729 -5.55421 9822 ft 259 kts 168°
2026-02-20 10:37 53.46985 -5.54827 9822 ft 255 kts 176°
2026-02-20 10:37 53.45229 -5.54354 9825 ft 255 kts 176°
2026-02-20 10:37 53.43476 -5.53876 9824 ft 255 kts 176°
2026-02-20 10:37 53.41720 -5.53398 9822 ft 256 kts 176°
2026-02-20 10:38 53.39985 -5.53012 9822 ft 253 kts 184°
2026-02-20 10:38 53.38247 -5.53334 9825 ft 247 kts 198°
2026-02-20 10:38 53.36591 -5.53961 9824 ft 247 kts 198°
2026-02-20 10:38 53.34913 -5.54590 9825 ft 247 kts 198°
2026-02-20 10:39 53.33236 -5.55218 9823 ft 247 kts 198°
2026-02-20 10:39 53.31558 -5.55846 9828 ft 247 kts 198°
2026-02-20 10:39 53.29956 -5.56788 9824 ft 242 kts 213°
2026-02-20 10:39 53.28550 -5.58304 9827 ft 240 kts 218°
2026-02-20 10:40 53.27165 -5.59857 9824 ft 240 kts 218°
2026-02-20 10:40 53.25800 -5.61459 9819 ft 238 kts 227°
2026-02-20 10:40 53.24900 -5.63682 9822 ft 231 kts 254°
2026-02-20 10:40 53.24749 -5.66282 9628 ft 223 kts 280°
2026-02-20 10:41 53.25336 -5.68654 9167 ft 229 kts 305°
2026-02-20 10:41 53.26447 -5.70623 8528 ft 233 kts 311°
2026-02-20 10:41 53.27587 -5.72557 7898 ft 234 kts 311°
2026-02-20 10:41 53.28721 -5.74499 7281 ft 234 kts 311°
2026-02-20 10:42 53.29854 -5.76448 6668 ft 233 kts 311°
2026-02-20 10:42 53.30980 -5.78387 6063 ft 232 kts 311°
2026-02-20 10:42 53.32099 -5.80319 5437 ft 231 kts 311°
2026-02-20 10:42 53.33210 -5.82239 4807 ft 229 kts 311°
2026-02-20 10:43 53.34313 -5.84146 4179 ft 227 kts 311°
2026-02-20 10:43 53.36407 -5.87769 3507 ft 203 kts 311°
2026-02-20 10:43 53.37364 -5.89427 3276 ft 195 kts 311°
2026-02-20 10:44 53.38296 -5.91048 3011 ft 191 kts 311°
2026-02-20 10:44 53.39211 -5.92638 2741 ft 189 kts 311°
2026-02-20 10:44 53.40025 -5.94293 2551 ft 181 kts 297°
2026-02-20 10:44 53.40391 -5.96217 2504 ft 167 kts 275°
2026-02-20 10:45 53.40497 -5.98090 2513 ft 158 kts 275°
2026-02-20 10:45 53.40603 -5.99902 2511 ft 155 kts 275°
2026-02-20 10:45 53.40707 -6.01696 2507 ft 154 kts 275°
2026-02-20 10:45 53.40809 -6.03475 2507 ft 153 kts 275°
2026-02-20 10:46 53.40911 -6.05253 2504 ft 154 kts 275°
2026-02-20 10:46 53.41013 -6.07042 2385 ft 154 kts 275°
2026-02-20 10:46 53.41115 -6.08831 2205 ft 154 kts 275°
2026-02-20 10:46 53.41216 -6.10609 1996 ft 153 kts 275°
2026-02-20 10:47 53.41317 -6.12392 1800 ft 154 kts 274°
2026-02-20 10:47 53.41416 -6.14160 1596 ft 154 kts 274°
2026-02-20 10:47 53.41518 -6.15972 1376 ft 154 kts 274°
2026-02-20 10:47 53.41619 -6.17766 1145 ft 155 kts 274°
2026-02-20 10:48 53.41719 -6.19558 916 ft 155 kts 274°
2026-02-20 10:48 53.41819 -6.21338 706 ft 151 kts 273°
2026-02-20 10:48 53.41915 -6.23062 493 ft 144 kts 273°
2026-02-20 10:48 53.42005 -6.24673 307 ft 136 kts 273°
2026-02-20 10:49 53.42090 -6.26202 221 ft 119 kts 275°
2026-02-20 10:49 53.42138 -6.27155 217 ft 56 kts 275°
2026-02-20 10:49 53.42171 -6.27726 212 ft 40 kts 284°
2026-02-20 10:49 53.42268 -6.28050 212 ft 25 kts 303°
2026-02-20 10:50 53.42357 -6.28107 213 ft 8 kts 61°
2026-02-20 10:50 53.42360 -6.28011 211 ft 8 kts 94°
2026-02-20 10:50 53.42356 -6.27925 211 ft 7 kts 94°
2026-02-20 10:50 53.42353 -6.27843 214 ft 9 kts 95°
2026-02-20 10:51 53.42348 -6.27752 215 ft 8 kts 95°
2026-02-20 10:51 53.42343 -6.27668 211 ft 7 kts 95°
2026-02-20 10:51 53.42339 -6.27592 211 ft 6 kts 95°
2026-02-20 10:51 53.42335 -6.27525 214 ft 5 kts 95°
2026-02-20 10:52 53.42332 -6.27465 211 ft 5 kts 95°
2026-02-20 10:52 53.42329 -6.27412 211 ft 4 kts 95°
2026-02-20 10:52 53.42326 -6.27357 211 ft 5 kts 96°
2026-02-20 10:52 53.42322 -6.27302 213 ft 4 kts 97°
2026-02-20 10:53 53.42317 -6.27236 211 ft 10 kts 97°
2026-02-20 10:53 53.42310 -6.27128 216 ft 9 kts 96°
2026-02-20 10:53 53.42303 -6.27031 213 ft 8 kts 96°
2026-02-20 10:53 53.42299 -6.26927 211 ft 11 kts 95°
2026-02-20 10:54 53.42288 -6.26742 211 ft 17 kts 94°
2026-02-20 10:54 53.42279 -6.26551 216 ft 16 kts 95°
2026-02-20 10:54 53.42270 -6.26378 211 ft 14 kts 95°
2026-02-20 10:54 53.42261 -6.26221 211 ft 13 kts 95°
2026-02-20 10:55 53.42254 -6.26079 211 ft 12 kts 95°
2026-02-20 10:55 53.42247 -6.25952 215 ft 11 kts 95°
2026-02-20 10:55 53.42240 -6.25835 213 ft 10 kts 95°
2026-02-20 10:55 53.42233 -6.25689 213 ft 19 kts 95°
2026-02-20 10:56 53.42220 -6.25464 215 ft 19 kts 95°
2026-02-20 10:56 53.42207 -6.25245 211 ft 19 kts 96°
2026-02-20 10:56 53.42197 -6.25031 211 ft 17 kts 92°
2026-02-20 10:56 53.42187 -6.24839 211 ft 16 kts 95°
2026-02-20 10:57 53.42177 -6.24663 219 ft 14 kts 95°
2026-02-20 10:57 53.42168 -6.24503 211 ft 13 kts 95°
2026-02-20 10:57 53.42160 -6.24359 218 ft 12 kts 95°
2026-02-20 10:57 53.42170 -6.24235 217 ft 10 kts 53°
2026-02-20 10:58 53.42219 -6.24158 211 ft 9 kts 42°
2026-02-20 10:58 53.42256 -6.24079 215 ft 8 kts 71°
2026-02-20 10:58 53.42251 -6.23994 211 ft 7 kts 117°
2026-02-20 10:58 53.42229 -6.23929 215 ft 6 kts 118°
2026-02-20 10:59 53.42211 -6.23872 218 ft 5 kts 118°
2026-02-20 10:59 53.42198 -6.23823 214 ft 4 kts 98°
2026-02-20 10:59 53.42214 -6.23798 215 ft 3 kts 29°
2026-02-20 10:59 53.42229 -6.23785 215 ft 0 kts 27°
2026-02-20 11:00 53.42233 -6.23782 215 ft 0 kts 28°